This is the latest recevied weather packets stored in our database for station/object W4MLN-3. If no packets are shown the sender has not sent any weather packets the latest 10 day(s).
| Time | Temp. | Humidity | Pressure | Rain* | Wind** | Luminosity | Snow |
|---|---|---|---|---|---|---|---|
| 1787874903 | 22.22° C | 84% | 1018 hPa | 0 mm | - | - | - |
| 1787874603 | 22.22° C | 84% | 1018.1 hPa | 0 mm | - | - | - |
| 1787874303 | 22.22° C | 84% | 1018 hPa | 0 mm | - | - | - |
| 1787874003 | 22.78° C | 83% | 1017.7 hPa | 0 mm | - | - | - |
| 1787873703 | 22.78° C | 83% | 1017.7 hPa | 0 mm | - | - | - |
| 1787873403 | 22.78° C | 82% | 1017.6 hPa | 0 mm | - | - | - |
| 1787873103 | 22.78° C | 82% | 1017.6 hPa | 0 mm | - | - | - |
| 1787872803 | 23.33° C | 81% | 1017.6 hPa | 0 mm | - | - | - |
| 1787872503 | 23.33° C | 81% | 1017.6 hPa | 0 mm | - | - | - |
| 1787872218 | 23.33° C | 80% | 1017.5 hPa | 0 mm | - | - | - |
| 1787871903 | 23.89° C | 79% | 1017.5 hPa | 0 mm | - | - | - |
| 1787871603 | 23.89° C | 78% | 1017.4 hPa | 0 mm | - | - | - |
| 1787871303 | 23.89° C | 78% | 1017.3 hPa | 0 mm | - | - | - |
| 1787871003 | 23.89° C | 78% | 1017.3 hPa | 0 mm | - | - | - |
| 1787870703 | 23.89° C | 80% | 1017.2 hPa | 0 mm | - | - | - |
| 1787870403 | 23.33° C | 78% | 1017.3 hPa | 0 mm | - | - | - |
| 1787870103 | 23.89° C | 79% | 1017.4 hPa | 0 mm | - | - | - |
| 1787869803 | 23.89° C | 77% | 1017.3 hPa | 0 mm | - | - | - |
| 1787869503 | 23.89° C | 76% | 1017.2 hPa | 0 mm | - | - | - |
| 1787869203 | 24.44° C | 77% | 1017.2 hPa | 0 mm | - | - | - |
| 1787868903 | 24.44° C | 78% | 1017.2 hPa | 0 mm | - | - | - |
| 1787868603 | 24.44° C | 77% | 1017.2 hPa | 0 mm | - | - | - |
| 1787868303 | 24.44° C | 76% | 1017.2 hPa | 0 mm | - | - | - |
| 1787868003 | 24.44° C | 75% | 1017.2 hPa | 0 mm | - | - | - |
| 1787867703 | 25° C | 73% | 1017.3 hPa | 0 mm | - | - | - |
* Rain latest hour (hover to see other rain measurements)
** Current wind speed in m/s (hover to see current wind gust speed)